sat.trackr.live / text

‹ back to catalog

KUIPER-00533

NORAD 69605 · 2026-140P

PAYLOAD ACTIVE UNKNOWN

§ Identity

Operator
Country
US
Launch date
2026-06-17
Launch site
FRGUI
Launch vehicle
Mass (kg)
RCS (m²)

External: N2YO · Heavens-Above · Gunter

§ Orbital elements

Epoch: 2026-09-19T03:40:17.854752Z

Period
97.30 min
Inclination
51.9025°
Eccentricity
0.0000393
Mean motion
14.79931300 rev/d
Perigee alt
629.3 km
Apogee alt
629.8 km
Semi-major
7,007.7 km
B*
2.8223e-5
RAAN
317.6635°
Arg perigee
69.7213°
Mean anomaly
290.3791°
Rev number
1,550

§ Raw data

KUIPER-005331 69605U 26140P   26262.15298443 -.00000006  00000+0  28223-4 0  99902 69605  51.9025 317.6635 0000393  69.7213 290.3791 14.79931300 15503

JSON: /api/v1/satellites/69605 · /tle

For live sub-satellite position, see the globe view (requires WebGL).

§ Visibility from observer

Set your observer location to see the next 7 days of passes ≥ 10°. The values pass through the URL so the page stays shareable.

No JS? Fill the form by hand. The geolocation button needs JavaScript.